W2JV-2 Weather Reports


Display with metric or nautical units.
time (UTC)temp
F
wind
direction
speed
MPH
gust
MPH
rain 1hr
in
rain 24hr
in
rain mn
in
humidity
%
barometer
mb
20260507090502 52 7 0.0 2.0 0.01 0.35 0.26 90 1008.6
20260507085004 52 347 0.0 2.0 0.03 0.35 0.26 90 1008.4
20260507083004 53 23 1.0 3.0 0.03 0.35 0.26 89 1008.1
20260507082503 53 4 1.0 2.0 0.03 0.35 0.26 89 1008.5
20260507082003 53 21 1.0 2.0 0.03 0.35 0.26 89 1008.5
20260507081003 53 350 0.0 2.0 0.05 0.34 0.25 89 1008.5
20260507080503 53 359 0.0 3.0 0.08 0.34 0.25 89 1008.5
20260507080004 53 4 1.0 2.0 0.09 0.33 0.24 89 1008.6
20260507075503 53 0 0.0 2.0 0.11 0.33 0.24 89 1008.6
20260507075003 53 16 0.0 2.0 0.13 0.32 0.23 89 1008.3
20260507073504 53 7 1.0 2.0 0.16 0.32 0.23 88 1008.5
20260507073004 53 12 1.0 3.0 0.17 0.32 0.23 88 1008.3
20260507072502 53 19 1.0 2.0 0.17 0.32 0.23 88 1008.4
20260507072003 53 22 1.0 2.0 0.18 0.32 0.23 87 1008.3
20260507071003 54 351 1.0 3.0 0.18 0.29 0.20 87 1007.9
20260507070009 54 9 1.0 3.0 0.14 0.24 0.15 87 1008.4
20260507065003 54 347 0.0 2.0 0.09 0.19 0.10 86 1008.2
20260507064004 54 190 1.0 3.0 0.06 0.16 0.07 86 1007.9
20260507063503 55 32 1.0 3.0 0.06 0.16 0.07 86 1007.4
20260507063002 55 8 1.0 5.0 0.05 0.15 0.06 86 1008.2
20260507062502 55 39 1.0 2.0 0.05 0.15 0.06 86 1007.9
20260507062003 55 29 1.0 2.0 0.04 0.14 0.05 86 1007.9
20260507061503 56 353 0.0 2.0 0.03 0.13 0.04 86 1008.0
20260507061002 56 42 1.0 3.0 0.01 0.11 0.02 87 1007.9
20260507060502 56 327 1.0 2.0 0.00 0.10 0.01 87 1008.1
20260507060002 57 359 0.0 2.0 0.00 0.10 0.01 87 1007.5
20260507055503 57 18 1.0 2.0 0.00 0.10 0.01 87 1007.3
20260507055003 57 18 1.0 3.0 0.00 0.10 0.01 87 1007.4
20260507054002 57 357 0.0 3.0 0.00 0.10 0.01 87 1007.4
20260507053502 57 22 0.0 2.0 0.00 0.10 0.01 87 1007.3
20260507053003 57 338 0.0 0.0 0.00 0.10 0.01 87 1007.5
20260507052003 57 315 0.0 0.0 0.01 0.10 0.01 87 1007.5
20260507051503 57 338 0.0 0.0 0.01 0.10 0.01 87 1007.4
20260507051004 58 348 0.0 0.0 0.01 0.10 0.01 87 1007.5
20260507050503 58 36 0.0 0.0 0.01 0.10 0.01 87 1007.3
20260507050003 58 36 0.0 0.0 0.01 0.10 0.01 87 1007.5
20260507045503 58 42 0.0 0.0 0.01 0.10 0.01 87 1007.6
20260507045003 58 306 0.0 0.0 0.01 0.10 0.01 87 1007.8
20260507044503 58 306 0.0 0.0 0.01 0.10 0.01 87 1007.7
20260507042504 59 312 0.0 0.0 0.00 0.09 0.00 87 1008.0
20260507042002 59 315 0.0 0.0 0.00 0.09 0.00 87 1008.0
20260507041502 59 303 0.0 0.0 0.00 0.09 0.00 87 1007.9
20260507040004 60 297 0.0 0.0 0.00 0.09 0.00 87 1007.8
20260507035504 60 297 0.0 0.0 0.00 0.09 0.09 87 1007.6
20260507035004 60 297 0.0 0.0 0.02 0.09 0.09 87 1007.6
20260507034502 61 297 0.0 0.0 0.05 0.09 0.09 87 1007.6
20260507033502 61 305 0.0 2.0 0.09 0.09 0.09 87 1007.7
20260507033003 62 328 0.0 1.0 0.09 0.09 0.09 87 1007.7
20260507032502 62 309 0.0 0.0 0.09 0.09 0.09 87 1007.7
20260507032004 62 328 0.0 1.0 0.09 0.09 0.09 88 1007.7
20260507031503 62 19 1.0 3.0 0.09 0.09 0.09 87 1007.5
20260507031003 62 323 1.0 2.0 0.09 0.09 0.09 87 1007.8
20260507030503 61 214 0.0 2.0 0.09 0.09 0.09 87 1007.6
20260507030004 61 239 1.0 3.0 0.09 0.09 0.09 86 1007.9
20260507025503 61 249 1.0 3.0 0.09 0.09 0.09 85 1007.8
20260507025003 61 222 1.0 3.0 0.07 0.07 0.07 83 1007.7
20260507024002 60 229 1.0 3.0 0.02 0.02 0.02 80 1007.9
20260507023503 60 215 1.0 3.0 0.00 0.00 0.00 79 1007.8
20260507023003 60 217 2.0 3.0 0.00 0.00 0.00 77 1007.9
20260507022502 60 229 1.0 3.0 0.00 0.00 0.00 77 1007.7
20260507022003 60 189 0.0 2.0 0.00 0.00 0.00 77 1007.5
20260507021003 60 191 1.0 3.0 0.00 0.00 0.00 77 1007.7
20260507020502 60 224 1.0 2.0 0.00 0.00 0.00 77 1007.8
20260507020004 60 201 1.0 3.0 0.00 0.00 0.00 77 1007.8
20260507015503 60 204 0.0 2.0 0.00 0.00 0.00 77 1007.8
20260507015004 60 199 0.0 0.0 0.00 0.00 0.00 77 1007.7
20260507014503 60 183 0.0 2.0 0.00 0.00 0.00 77 1007.7
20260507014003 60 188 1.0 3.0 0.00 0.00 0.00 77 1007.7
20260507013504 60 187 1.0 2.0 0.00 0.00 0.00 77 1007.6
20260507013003 60 194 1.0 3.0 0.00 0.00 0.00 76 1007.6
20260507012503 60 204 1.0 2.0 0.00 0.00 0.00 76 1007.7
20260507012004 60 210 1.0 2.0 0.00 0.00 0.00 76 1007.7
20260507011503 60 200 1.0 2.0 0.00 0.00 0.00 76 1007.7
20260507010502 60 171 1.0 2.0 0.00 0.00 0.00 75 1007.6
20260507010004 60 168 0.0 2.0 0.00 0.00 0.00 75 1007.5
20260507005003 60 170 1.0 3.0 0.00 0.00 0.00 75 1007.6
20260507004004 61 201 0.0 3.0 0.00 0.00 0.00 75 1007.6
20260507003504 61 238 1.0 3.0 0.00 0.00 0.00 75 1007.7
20260507002503 61 198 1.0 3.0 0.00 0.00 0.00 75 1007.6
20260507002003 61 200 1.0 2.0 0.00 0.00 0.00 75 1007.6
20260507001003 61 207 0.0 1.0 0.00 0.00 0.00 74 1007.6
20260507000502 61 232 1.0 3.0 0.00 0.00 0.00 74 1007.5
20260507000003 61 209 1.0 3.0 0.00 0.00 0.00 74 1007.5
20260506235504 61 225 2.0 5.0 0.00 0.00 0.00 74 1007.4
20260506235004 61 215 2.0 8.0 0.00 0.00 0.00 74 1007.4
20260506234504 61 231 2.0 5.0 0.00 0.00 0.00 74 1007.5
20260506233503 61 205 1.0 3.0 0.00 0.00 0.00 74 1007.4
20260506233003 61 225 2.0 5.0 0.00 0.00 0.00 74 1007.4
20260506232502 61 222 2.0 5.0 0.00 0.00 0.00 74 1007.4
20260506232002 61 200 1.0 3.0 0.00 0.00 0.00 74 1007.4
20260506231504 61 220 2.0 5.0 0.00 0.00 0.00 74 1007.2
20260506231003 61 235 2.0 5.0 0.00 0.00 0.00 74 1007.2
20260506230502 61 234 1.0 3.0 0.00 0.00 0.00 74 1007.2
20260506225503 61 215 2.0 3.0 0.00 0.00 0.00 74 1007.2
20260506225003 61 208 1.0 5.0 0.00 0.00 0.00 74 1007.2
20260506224503 61 248 1.0 3.0 0.00 0.00 0.00 74 1007.2
20260506224003 62 208 2.0 5.0 0.00 0.00 0.00 73 1007.1
20260506223503 62 202 2.0 3.0 0.00 0.00 0.00 73 1007.0
20260506222503 62 201 2.0 3.0 0.00 0.00 0.00 73 1007.0
20260506222003 62 175 2.0 5.0 0.00 0.00 0.00 73 1007.1
20260506221503 62 201 1.0 3.0 0.00 0.00 0.00 73 1007.1
20260506221004 62 212 3.0 8.0 0.00 0.00 0.00 73 1007.0
20260506220503 63 238 2.0 10.0 0.00 0.00 0.00 73 1006.9
20260506220003 63 222 2.0 10.0 0.00 0.00 0.00 73 1006.8
20260506215503 63 219 3.0 5.0 0.00 0.00 0.00 74 1006.8
20260506215003 63 195 3.0 7.0 0.00 0.00 0.00 74 1006.7
20260506214504 63 227 2.0 9.0 0.00 0.00 0.00 74 1006.7
20260506214004 63 178 2.0 10.0 0.00 0.00 0.00 74 1006.6
20260506213503 63 198 3.0 7.0 0.00 0.00 0.00 75 1006.6
20260506213003 63 203 3.0 9.0 0.00 0.00 0.00 75 1006.5
20260506212503 63 209 3.0 10.0 0.00 0.00 0.00 76 1006.5
20260506212004 63 182 2.0 8.0 0.00 0.00 0.00 77 1006.5
20260506211504 63 200 3.0 7.0 0.00 0.00 0.00 78 1006.4
20260506211004 62 205 2.0 5.0 0.00 0.00 0.00 79 1006.5
20260506210502 62 215 4.0 8.0 0.00 0.00 0.00 79 1006.4
20260506210003 61 219 3.0 5.0 0.00 0.00 0.00 79 1006.4
20260506205503 61 219 1.0 3.0 0.00 0.00 0.00 79 1006.4
20260506205003 60 238 2.0 5.0 0.00 0.00 0.00 78 1006.4
20260506204502 60 223 1.0 5.0 0.00 0.00 0.00 78 1006.6
20260506204003 60 175 2.0 6.0 0.00 0.00 0.00 78 1006.7
20260506203503 60 208 1.0 3.0 0.00 0.00 0.00 78 1006.7
20260506203004 60 238 2.0 5.0 0.00 0.00 0.00 78 1006.9
20260506202504 60 216 3.0 10.0 0.00 0.00 0.00 77 1007.0
20260506202003 60 227 2.0 7.0 0.00 0.00 0.00 78 1007.0
20260506201503 60 223 2.0 7.0 0.00 0.00 0.00 78 1007.0
20260506201003 60 233 2.0 9.0 0.00 0.00 0.00 78 1007.1
20260506200503 60 225 3.0 8.0 0.00 0.00 0.00 78 1007.1
20260506200003 60 226 2.0 6.0 0.00 0.00 0.00 77 1007.2
20260506195503 60 235 3.0 8.0 0.00 0.00 0.00 77 1007.3
20260506195004 60 228 2.0 7.0 0.00 0.00 0.00 77 1007.3
20260506194503 60 221 3.0 7.0 0.00 0.00 0.00 77 1007.2
20260506194003 61 181 2.0 7.0 0.00 0.00 0.00 77 1007.2
20260506193502 61 166 5.0 12.0 0.00 0.00 0.00 77 1007.1
20260506193003 61 198 3.0 10.0 0.00 0.00 0.00 77 1007.0
20260506192503 61 210 3.0 12.0 0.00 0.00 0.00 77 1007.0
20260506192003 61 193 5.0 16.0 0.00 0.00 0.00 77 1007.2
20260506191003 62 211 4.0 8.0 0.00 0.00 0.00 79 1007.1
20260506190503 62 182 4.0 10.0 0.00 0.00 0.00 80 1007.1
20260506190004 62 197 3.0 10.0 0.00 0.00 0.00 81 1007.0
20260506185503 62 222 4.0 8.0 0.00 0.00 0.00 81 1007.2
20260506185003 62 213 3.0 8.0 0.00 0.00 0.00 82 1007.3
20260506184504 62 185 2.0 8.0 0.00 0.00 0.00 82 1007.3
20260506184003 61 203 3.0 9.0 0.00 0.00 0.00 82 1007.6
20260506183503 61 189 2.0 8.0 0.00 0.00 0.00 82 1007.9
20260506182502 61 213 3.0 7.0 0.00 0.00 0.00 81 1007.8
20260506181503 61 222 3.0 9.0 0.00 0.00 0.00 82 1007.9
20260506181004 61 199 2.0 8.0 0.00 0.00 0.00 82 1007.8
20260506175003 61 196 2.0 8.0 0.00 0.00 0.00 78 1008.1
20260506174504 61 212 3.0 8.0 0.00 0.00 0.00 78 1008.3
20260506174003 61 173 2.0 7.0 0.00 0.00 0.00 78 1008.4
20260506173503 61 182 2.0 7.0 0.00 0.00 0.00 77 1008.5
20260506172003 61 195 2.0 5.0 0.00 0.00 0.00 75 1008.7
20260506170503 61 220 1.0 7.0 0.00 0.00 0.00 73 1009.1
20260506170003 61 182 1.0 7.0 0.00 0.00 0.00 72 1009.2
20260506165503 61 217 1.0 7.0 0.00 0.00 0.00 72 1009.3
20260506165005 62 209 3.0 9.0 0.00 0.00 0.00 71 1009.3
20260506164503 62 219 2.0 7.0 0.00 0.00 0.00 71 1009.2
20260506164003 62 217 2.0 7.0 0.00 0.00 0.00 71 1009.4
20260506163502 62 231 2.0 8.0 0.00 0.00 0.00 70 1009.5
20260506162003 63 202 3.0 9.0 0.00 0.00 0.00 69 1009.5
20260506161502 63 202 5.0 12.0 0.00 0.00 0.00 69 1009.4
20260506161003 63 199 2.0 7.0 0.00 0.00 0.00 69 1009.4
20260506160503 64 199 3.0 9.0 0.00 0.00 0.00 69 1009.6
20260506160003 64 213 4.0 8.0 0.00 0.00 0.00 68 1009.5
20260506155005 64 218 6.0 13.0 0.00 0.00 0.00 67 1009.5
20260506154503 65 236 5.0 10.0 0.00 0.00 0.00 67 1009.6
20260506154004 65 194 3.0 9.0 0.00 0.00 0.00 67 1009.7
20260506153503 65 212 3.0 7.0 0.00 0.00 0.00 67 1009.8
20260506153003 65 192 3.0 6.0 0.00 0.00 0.00 67 1009.8
20260506152503 65 195 4.0 7.0 0.00 0.00 0.00 67 1009.8
20260506152004 65 192 3.0 10.0 0.00 0.00 0.00 67 1009.8
20260506151004 64 215 5.0 8.0 0.00 0.00 0.00 67 1009.8
20260506150504 64 172 3.0 9.0 0.00 0.00 0.00 67 1009.5
20260506150003 64 193 4.0 7.0 0.00 0.00 0.00 68 1009.5
20260506145504 64 173 3.0 8.0 0.00 0.00 0.00 68 1009.5
20260506145004 64 231 3.0 8.0 0.00 0.00 0.00 67 1009.5
20260506144504 64 211 4.0 10.0 0.00 0.00 0.00 67 1009.4
20260506144003 65 209 2.0 6.0 0.00 0.00 0.00 67 1009.4
20260506143504 65 216 5.0 9.0 0.00 0.00 0.00 67 1009.6
20260506142503 65 208 3.0 10.0 0.00 0.00 0.00 67 1009.7
20260506142004 65 227 3.0 8.0 0.00 0.00 0.00 67 1009.8
20260506141503 65 213 5.0 13.0 0.00 0.00 0.00 67 1009.7
20260506141004 64 200 5.0 14.0 0.00 0.00 0.00 67 1009.8
20260506140503 64 224 5.0 16.0 0.00 0.00 0.00 67 1009.8
20260506140003 64 230 5.0 12.0 0.00 0.00 0.00 68 1009.8
20260506135503 64 218 3.0 9.0 0.00 0.00 0.00 68 1009.9
20260506134504 64 218 5.0 10.0 0.00 0.00 0.00 68 1010.0
20260506134004 63 218 5.0 12.0 0.00 0.00 0.00 68 1010.0
20260506133504 64 208 5.0 14.0 0.00 0.00 0.00 68 1010.0
20260506133004 64 189 6.0 12.0 0.00 0.00 0.00 68 1010.0
20260506132503 63 207 3.0 14.0 0.00 0.00 0.00 69 1009.9
20260506132003 63 218 2.0 13.0 0.00 0.00 0.00 69 1009.7
20260506131503 63 213 6.0 12.0 0.00 0.00 0.00 68 1009.8
20260506131004 63 223 4.0 12.0 0.00 0.00 0.00 69 1009.8
20260506130503 63 190 3.0 9.0 0.00 0.00 0.00 69 1009.7
20260506130003 63 220 5.0 10.0 0.00 0.00 0.00 69 1009.7
20260506125503 63 217 4.0 9.0 0.00 0.00 0.00 69 1009.8
20260506125003 63 198 3.0 13.0 0.00 0.00 0.00 69 1009.7
20260506124504 63 226 3.0 17.0 0.00 0.00 0.00 69 1009.7
20260506123504 63 208 4.0 9.0 0.00 0.00 0.00 70 1010.0
20260506123004 62 184 3.0 9.0 0.00 0.00 0.00 70 1010.1
20260506122503 62 179 5.0 12.0 0.00 0.00 0.00 70 1010.1
20260506122003 62 206 5.0 13.0 0.00 0.00 0.00 71 1010.2
20260506121503 62 165 4.0 9.0 0.00 0.00 0.00 71 1010.4
20260506121004 61 232 2.0 9.0 0.00 0.00 0.00 72 1010.3
20260506120503 61 211 3.0 14.0 0.00 0.00 0.00 72 1010.2
20260506120003 61 173 3.0 8.0 0.00 0.00 0.00 73 1010.3
20260506114502 60 212 2.0 8.0 0.00 0.00 0.00 75 1010.0
20260506114003 60 186 2.0 7.0 0.00 0.00 0.00 75 1010.1
20260506113503 59 215 2.0 7.0 0.00 0.00 0.00 76 1010.0
20260506113003 59 194 2.0 5.0 0.00 0.00 0.00 76 1010.0
20260506112503 59 191 2.0 5.0 0.00 0.00 0.00 76 1010.0
20260506112004 59 189 3.0 7.0 0.00 0.00 0.00 76 1010.1
20260506110503 58 207 2.0 5.0 0.00 0.00 0.00 76 1010.3
20260506110004 58 197 2.0 5.0 0.00 0.00 0.00 76 1010.2
20260506105504 58 205 1.0 3.0 0.00 0.00 0.00 76 1010.1
20260506105003 58 190 2.0 7.0 0.00 0.00 0.00 76 1010.1
20260506104503 58 194 2.0 7.0 0.00 0.00 0.00 76 1010.2
20260506104003 58 192 2.0 6.0 0.00 0.00 0.00 76 1010.1
20260506102504 58 191 2.0 3.0 0.00 0.00 0.00 76 1010.0
20260506101503 58 200 2.0 6.0 0.00 0.00 0.00 76 1010.0
20260506101004 58 196 2.0 5.0 0.00 0.00 0.00 76 1010.0
20260506100503 58 191 2.0 7.0 0.00 0.00 0.00 76 1010.1
20260506095504 58 215 2.0 8.0 0.00 0.00 0.00 75 1010.0
20260506095004 58 166 2.0 5.0 0.00 0.00 0.00 75 1010.0
20260506094503 58 220 2.0 5.0 0.00 0.00 0.00 75 1010.0
20260506094003 58 220 2.0 7.0 0.00 0.00 0.00 75 1009.9
20260506093504 58 214 2.0 9.0 0.00 0.00 0.00 75 1009.9
20260506093003 58 213 3.0 8.0 0.00 0.00 0.00 75 1009.9
20260506092503 58 217 3.0 10.0 0.00 0.00 0.00 75 1009.9
20260506092003 58 210 2.0 8.0 0.00 0.00 0.00 75 1010.0
20260506091504 58 209 2.0 8.0 0.00 0.00 0.00 75 1010.0